THORAD DELTA 1 DEB, 42608

Orbit data source: Space-Track

THORAD DELTA 1 DEB, 42608 is space debris in SSO originally from a launch on Fri, 15 Nov 1974 UTC launched from the Air Force Western Test Range (AFWTR). Debris objects in space refer to the collection of defunct objects orbiting the Earth. Examples of debris include non-operational satellites, rocket bodies, and fragments generated from explosions, collisions, or faulty payload assembly.

Loading next visibility...
Identifier
42608, 1974-089FZ
Orbit
SSO
Country
Flag of USUS
Related business
Manufacturer
Unknown
Mission
Spacecraft
Bus & Motor
Unknown
Mass
Unknown
Launch date (UTC)
1974-11-15 (51 years ago)
Launch vehicle
Unknown
Launch site
Air Force Western Test Range (AFWTR)
Object type
Payload
Rocket body
Debris
Shape & HBR
Unknown shape, 0.1 m
Radar Cross Section
Small (<0.1 m²)

Expand to show TLE details & history
Last TLE update: 5 days ago

TLE from 5 days ago
0 THORAD DELTA 1 DEB
1 42608U 74089FZ  26009.66600241 -.00000014  00000-0  27109-3 0  9998
2 42608 102.5274 357.1644 0073354 137.0256 223.6559 12.28106229543961
Epoch: 2026-01-09T15:59Z
TLE epoch observation values (Epoch: 2026-01-09T15:59:02.608Z)
Latitude
-0.00005°
Longitude
8.20106°
Altitude
1,602.264 km
Speed
7.05 km/s
True Right ascension
23h 48m 39s
True Declination
0° 00' 00"
Sunlit
Object was in daylight at epoch
Visualization orbit readout
Latitude
Unknown
Longitude
Unknown
Altitude
Unknown
Speed
Unknown
Apparent Right ascension
Unknown
Apparent Declination
Unknown
Sunlit
N/A
Visualization observer readout
Local Sidereal Time
17:24:07
Azimuth
Unknown
Elevation
Unknown
Doppler factor
Unknown
Orbital elements
Apogee altitude
1,613.244 km
Perigee altitude
1,496.857 km
Semi-major axis
7,933.188 km
Eccentricity
0.00734
Inclination
102.5274°
RAAN
357.1644°
Arg. of periapsis
137.0256°
True anomaly
223.07946°
Mean anomaly
223.6559°
Eccentric anomaly
223.3673°
Mean motion
3.07165 °/min
Orbital period
117.2 mins
BSTAR
0.00027109

Documentation

Showing up to 5 results
|